User: anonymous   Login
Location: Arbon
(43.0005°N, 0.7472°E)
Time: 16:09:36
(UTC+00:00)
Language:

Cosmos 858 Rocket - Orbit

View from above orbital plane
View from above orbital plane
View from above satellite
View from above satellite

Ground track
Ground track

The orbit data is extracted from the following two-line orbital elements,

1  9444U 76098B   20292.89638691 +.00000028 +00000-0 +17791-4 0  9995
2  9444 074.0520 213.3196 0012250 051.2093 309.0153 14.37927685743979
Epoch (UTC): 18 October 2020 21:30:47
Eccentricity: 0.0012250
inclination: 74.0520°
perigee height: 756 km
apogee height: 774 km
right ascension of ascending node: 213.3196°
argument of perigee: 51.2093°
revolutions per day: 14.37927685
mean anomaly at epoch: 309.0153°
orbit number at epoch: 74397

The dashed part of the orbit path shows where the satellite is in the earth's shadow,  

DLR